Tracking 31027 objects as of 19-Jul-2025
HD Live streaming from Space Station
objects crossing your sky now

NOAA 16 DEB

Track NOAA 16 DEB now!
10-day predictions


NORAD ID: 41058
Int'l Code: 2000-055R
Perigee: 841.7 km
Apogee: 876.7 km
Inclination: 98.6 °
Period: 102.0 minutes
Semi major axis: 7230 km
RCS: Unknown
Launch date: September 21, 2000
Source: United States (US)
Launch site: AIR FORCE WESTERN TEST RANGE (AFWTR)

Note: This is SATELLITE DEBRIS
Your satellite tracking list
IRIDIUM 135
Track 1 satellite(s)




NASA's NSSDC Master Catalog

Two Line Element Set (TLE):
1 41058U 00055R   25199.48482732  .00000701  00000-0  40380-3 0  9998
2 41058  98.5826 205.5299 0024179  23.1459 337.0797 14.12141020495827
Source of the keplerian elements: AFSPC